Location: Atbuku
(36.4936°N, 30.4362°E)
Time: 22:43:42
(UTC+00:00)

Cosmos 1933 - Visible Passes

Search period start: 13 March 2026 00:00
Search period end: 23 March 2026 00:00
Orbit: 509 x 515 km, 82.5° (Epoch: 13 March)

Date Brightness Start Highest point End Pass type
(mag) Time Alt. Az. Time Alt. Az. Time Alt. Az.
13 Mar 3.5 03:44:58 10° SSW 03:48:37 44° W 03:52:18 10° N visible
14 Mar 3.2 03:28:35 10° SSW 03:32:20 59° W 03:36:08 10° N visible
15 Mar 3.1 03:12:17 10° S 03:16:05 78° W 03:19:55 10° N visible
16 Mar 3.3 02:56:02 10° S 02:59:50 80° E 03:03:39 10° N visible
17 Mar 3.7 02:39:49 10° S 02:43:34 60° E 02:47:20 10° NNE visible
18 Mar 4.3 02:23:40 10° SSE 02:27:18 45° E 02:30:58 10° NNE visible
19 Mar 4.8 02:07:34 10° SSE 02:11:02 34° E 02:14:32 10° NNE visible
20 Mar 5.2 01:52:26 15° SE 01:54:47 27° E 01:58:02 10° NNE visible
20 Mar 4.8 03:28:04 10° WSW 03:30:25 16° WNW 03:32:46 10° NW visible
21 Mar 5.6 01:37:12 18° ESE 01:38:32 21° E 01:41:27 10° NE visible
21 Mar 4.6 03:12:10 14° WSW 03:14:01 20° WNW 03:16:52 10° NNW visible
22 Mar 5.9 01:21:46 16° E 01:22:16 17° E 01:24:44 10° NE visible
22 Mar 4.3 02:56:43 22° W 02:57:39 25° WNW 03:00:51 10° NNW visible
